Regional Weather Roundup
Issued by NWS

Home | Current Version | Previous Version | Text Only | Print | Product List | Glossary Off
Versions: 1 2 3 4 5 6 7 8 9 10 11 12 13 14 15 16 17 18 19 20 21 22 23 24 25 26 27 28 29 30 31 32 33 34 35 36 37 38 39 40 41 42 43 44 45 46 47 48 49 50

000
ASUS43 KLMK 242310
RWRKY
KENTUCKY REGIONAL WEATHER ROUNDUP
NATIONAL WEATHER SERVICE LOUISVILLE KY
700 PM EDT FRI APR 24 2015

NOTE "FAIR" INDICATES FEW OR NO CLOUDS BELOW 12,000 FEET
WITH NO SIGNIFICANT WEATHER AND/OR OBSTRUCTIONS TO VISIBILITY.

KYZ001>023-026-027-061>063-070>075-250000-
WESTERN AND SOUTH CENTRAL KENTUCKY

CITY           SKY/WX    TMP DP  RH WIND       PRES   REMARKS
PADUCAH        CLOUDY    60  41  49 SE8       29.89F
HENDERSON      CLOUDY    61  30  31 S13       29.93F
OWENSBORO      CLOUDY    62  37  39 S10       29.95F
HOPKINSVILLE   CLOUDY    61  41  48 E3        29.95F
BOWLING GREEN  CLOUDY    62  40  44 E3        29.96F
GLASGOW        CLOUDY    63  32  31 CALM      29.95F
$$

KYZ024-025-028>034-038-045-046-053-250000-
NORTH CENTRAL KENTUCKY

CITY           SKY/WX    TMP DP  RH WIND       PRES   REMARKS
LOUISVILLE/SDF CLOUDY    63  25  23 SE12      29.96F
LOUISVILLE/LOU CLOUDY    63  26  24 S8        29.96F
FORT KNOX      CLOUDY    62  30  29 S9        29.94S
$$

KYZ035>037-039>044-047>052-055>060-089>105-250000-
NORTHEAST KENTUCKY

CITY           SKY/WX    TMP DP  RH WIND       PRES   REMARKS
LEXINGTON      PTSUNNY   59  29  31 SE3       29.97F
COVINGTON      CLOUDY    58  31  35 S7        29.97F
FRANKFORT      PTSUNNY   59  28  30 E7        29.96F
$$

KYZ054-064>069-076>088-106>120-250000-
SOUTHEAST KENTUCKY

CITY           SKY/WX    TMP DP  RH WIND       PRES   REMARKS
JACKSON        PTSUNNY   62  21  20 CALM      29.99S
LONDON         CLOUDY    65  14  14 CALM      29.98F
SOMERSET       PTSUNNY   61  30  31 NE3       29.98F
MIDDLESBORO    CLOUDY    65  30  26 S5        29.98F
MONTICELLO     CLOUDY    64  31  29 N6        30.00F
$$



USA.gov is the U.S. government's official web portal to all federal, state and local government web resources and services.